Weather History for KJFZ - August, 2014

Change the Weather History Date:

Sunday, August 24, 2014

  Actual Average (KBLF) Record (KBLF)
Temperature  
Mean Temperature 73 °F 72 °F  
Max Temperature 79 °F 80 °F 95 °F (2007)
Min Temperature 66 °F 63 °F 49 °F (1997)
Degree Days  
Heating Degree Days 0 0  
Month to date heating degree days 0  
Since 1 June heating degree days 24  
Since 1 July heating degree days 2  
Cooling Degree Days 8 7  
Month to date cooling degree days 185  
Year to date cooling degree days 690  
Since 1 June cooling degree days 599  
Growing Degree Days 23 (Base 50)    
Moisture  
Dew Point 66 °F    
Average Humidity 80    
Maximum Humidity 95    
Minimum Humidity 65    
Precipitation  
Precipitation 0.00 in 0.10 in 0.76 in (1961)
Month to date precipitation 2.59  
Year to date precipitation 27.72  
Snow  
Snow 0.00 in - - ()
Month to date snowfall  
Since 1 June snowfall  
Since 1 July snowfall  
Snow Depth -    
Sea Level Pressure  
Sea Level Pressure 30.12 in    
Wind  
Wind Speed 5 mph (SE)    
Max Wind Speed 13 mph    
Max Gust Speed 20 mph    
Visibility 9 miles    
Events Fog    
T = Trace of Precipitation, MM = Missing Value Source: NWS Daily Summary

Daily Weather History Graph

Daily Weather History Graph

Search for Another Location

Airport or City:

Trip Planner

Search our weather history database for the weather conditions in past years. The results will help you decide how hot, cold, wet, or windy it might be!

Date:

Astronomy

Aug. 24, 2014 Rise Set
Actual Time 6:51 AM EDT 8:07 PM EDT
Civil Twilight 6:24 AM EDT 8:34 PM EDT
Nautical Twilight 5:52 AM EDT 9:06 PM EDT
Astronomical Twilight 5:18 AM EDT 9:39 PM EDT
Moon 6:00 AM EDT 7:25 PM EDT
Length of Visible Light 14h 09m
Length of Day
13h 15m
Waning Crescent, 1% of the Moon is Illuminated
Aug 24
Waning Crescent
Aug 25
New
Sep 2
First Quarter
Sep 8
Full
Sep 15
Last Quarter

Hourly Weather History & Observations

Time (EDT) Temp. Dew Point Humidity Pressure Visibility Wind Dir Wind Speed Gust Speed Precip Events Conditions
12:15 AM 72.7 °F 70.2 °F 92% 30.10 in 7.0 mi Calm Calm - N/A   Scattered Clouds
12:35 AM 73.4 °F 70.7 °F 91% 30.10 in 10.0 mi Calm Calm - N/A   Mostly Cloudy
12:55 AM 73.2 °F 70.7 °F 92% 30.10 in 7.0 mi Calm Calm - N/A   Scattered Clouds
1:15 AM 73.4 °F 70.7 °F 91% 30.09 in 10.0 mi Calm Calm - N/A   Clear
1:35 AM 72.5 °F 70.2 °F 92% 30.09 in 4.0 mi Calm Calm - N/A   Mostly Cloudy
1:55 AM 71.6 °F 69.6 °F 93% 30.08 in 1.0 mi Calm Calm - N/A   Overcast
2:15 AM 70.7 °F 68.9 °F 94% 30.08 in 0.8 mi NE 3.5 mph - N/A   Overcast
2:35 AM 71.4 °F 69.8 °F 95% 30.08 in 2.5 mi Calm Calm - N/A   Mostly Cloudy
2:55 AM 70.9 °F 69.3 °F 95% 30.07 in 0.5 mi SE 6.9 mph - N/A Fog Fog
3:15 AM 70.9 °F 68.9 °F 93% 30.07 in 7.0 mi ESE 4.6 mph - N/A   Scattered Clouds
3:35 AM 71.1 °F 68.4 °F 91% 30.06 in 10.0 mi ESE 3.5 mph - N/A   Scattered Clouds
3:55 AM 71.2 °F 68.0 °F 89% 30.06 in 10.0 mi ESE 6.9 mph - N/A   Scattered Clouds
4:15 AM 71.6 °F 67.6 °F 87% 30.06 in 10.0 mi SE 9.2 mph - N/A   Scattered Clouds
4:35 AM 72.0 °F 67.5 °F 86% 30.06 in 10.0 mi ESE 6.9 mph - N/A   Scattered Clouds
4:55 AM 71.6 °F 67.5 °F 87% 30.05 in 10.0 mi ESE 9.2 mph - N/A   Scattered Clouds
5:15 AM 71.6 °F 67.1 °F 86% 30.06 in 10.0 mi SE 5.8 mph - N/A   Clear
5:35 AM 71.8 °F 66.6 °F 84% 30.06 in 10.0 mi East 4.6 mph - N/A   Clear
5:55 AM 71.8 °F 66.4 °F 83% 30.07 in 10.0 mi SE 4.6 mph - N/A   Clear
6:15 AM 70.7 °F 66.4 °F 86% 30.07 in 10.0 mi Calm Calm - N/A   Scattered Clouds
6:35 AM 71.1 °F 66.2 °F 85% 30.08 in 10.0 mi East 4.6 mph - N/A   Scattered Clouds
6:55 AM 71.2 °F 66.2 °F 84% 30.08 in 10.0 mi SE 6.9 mph - N/A   Scattered Clouds
7:15 AM 70.7 °F 66.2 °F 86% 30.10 in 10.0 mi Calm Calm - N/A   Scattered Clouds
7:35 AM 70.7 °F 66.2 °F 86% 30.10 in 10.0 mi SE 5.8 mph - N/A   Clear
7:55 AM 70.3 °F 66.2 °F 87% 30.11 in 10.0 mi SE 6.9 mph - N/A   Clear
8:15 AM 71.8 °F 66.2 °F 83% 30.11 in 10.0 mi SSE 6.9 mph - N/A   Clear
8:35 AM 72.5 °F 66.4 °F 81% 30.11 in 10.0 mi SE 8.1 mph - N/A   Clear
8:55 AM 72.7 °F 66.6 °F 81% 30.12 in 10.0 mi SE 10.4 mph - N/A   Clear
9:15 AM 73.0 °F 66.6 °F 80% 30.12 in 10.0 mi SE 10.4 mph - N/A   Clear
9:35 AM 73.4 °F 66.6 °F 79% 30.12 in 10.0 mi SE 10.4 mph 17.3 mph N/A   Clear
9:55 AM 73.6 °F 66.6 °F 79% 30.13 in 10.0 mi ESE 9.2 mph 18.4 mph N/A   Clear
10:15 AM 74.5 °F 66.6 °F 76% 30.13 in 10.0 mi SE 8.1 mph - N/A   Clear
10:35 AM 75.2 °F 66.6 °F 74% 30.14 in 10.0 mi SE 6.9 mph 16.1 mph N/A   Clear
10:55 AM 75.6 °F 66.7 °F 74% 30.14 in 10.0 mi SE 11.5 mph 18.4 mph N/A   Clear
11:15 AM 75.7 °F 66.9 °F 74% 30.15 in 10.0 mi ESE 9.2 mph 18.4 mph N/A   Scattered Clouds
11:35 AM 74.7 °F 66.2 °F 75% 30.15 in 10.0 mi SE 12.7 mph 17.3 mph N/A   Mostly Cloudy
11:55 AM 75.4 °F 66.2 °F 73% 30.15 in 10.0 mi ESE 9.2 mph 19.6 mph N/A   Overcast
12:15 PM 76.5 °F 66.9 °F 72% 30.16 in 10.0 mi SE 6.9 mph - N/A   Overcast
12:35 PM 75.2 °F 66.2 °F 73% 30.16 in 10.0 mi SE 10.4 mph - N/A   Overcast
12:55 PM 75.4 °F 65.8 °F 72% 30.15 in 10.0 mi SE 9.2 mph - N/A   Mostly Cloudy
1:15 PM 77.5 °F 66.4 °F 68% 30.15 in 10.0 mi SE 9.2 mph - N/A   Scattered Clouds
1:35 PM 78.1 °F 66.9 °F 68% 30.15 in 10.0 mi ESE 9.2 mph - N/A   Scattered Clouds
1:55 PM 78.1 °F 66.6 °F 68% 30.15 in 10.0 mi SE 9.2 mph - N/A   Scattered Clouds
2:15 PM 78.6 °F 66.2 °F 66% 30.14 in 10.0 mi SE 8.1 mph - N/A   Scattered Clouds
2:35 PM 79.0 °F 66.9 °F 66% 30.14 in 10.0 mi SE 10.4 mph 16.1 mph N/A   Mostly Cloudy
2:55 PM 78.6 °F 66.2 °F 66% 30.14 in 10.0 mi SE 10.4 mph 16.1 mph N/A   Scattered Clouds
3:15 PM 79.0 °F 66.4 °F 65% 30.12 in 10.0 mi SE 9.2 mph 16.1 mph N/A   Scattered Clouds
3:35 PM 79.0 °F 66.2 °F 65% 30.12 in 10.0 mi SE 9.2 mph - N/A   Scattered Clouds
3:55 PM 78.8 °F 66.6 °F 66% 30.12 in 10.0 mi SE 6.9 mph - N/A   Scattered Clouds
4:15 PM 78.6 °F 66.0 °F 65% 30.12 in 10.0 mi SE 9.2 mph 17.3 mph N/A   Clear
4:35 PM 77.9 °F 66.2 °F 67% 30.11 in 10.0 mi SE 9.2 mph 16.1 mph N/A   Clear
4:55 PM 77.7 °F 66.0 °F 67% 30.12 in 10.0 mi SE 9.2 mph 17.3 mph N/A   Clear
5:15 PM 77.4 °F 65.8 °F 67% 30.12 in 10.0 mi SE 9.2 mph - N/A   Scattered Clouds
5:35 PM 77.2 °F 65.3 °F 67% 30.12 in 10.0 mi ESE 8.1 mph - N/A   Scattered Clouds
5:55 PM 76.5 °F 65.7 °F 69% 30.12 in 10.0 mi ESE 6.9 mph 16.1 mph N/A   Clear
6:15 PM 76.1 °F 65.7 °F 70% 30.12 in 10.0 mi SE 8.1 mph - N/A   Scattered Clouds
6:35 PM 74.5 °F 64.9 °F 72% 30.12 in 10.0 mi SE 9.2 mph - N/A   Scattered Clouds
6:55 PM 72.9 °F 64.4 °F 75% 30.12 in 10.0 mi SE 10.4 mph 16.1 mph N/A   Clear
7:15 PM 71.8 °F 64.4 °F 77% 30.13 in 10.0 mi SE 10.4 mph 17.3 mph N/A   Scattered Clouds
7:35 PM 70.7 °F 63.9 °F 79% 30.13 in 10.0 mi ESE 8.1 mph 18.4 mph N/A   Scattered Clouds
7:55 PM 70.0 °F 63.5 °F 80% 30.12 in 10.0 mi SE 6.9 mph - N/A   Scattered Clouds
8:15 PM 69.1 °F 63.1 °F 81% 30.13 in 10.0 mi SE 9.2 mph - N/A   Scattered Clouds
8:35 PM 68.5 °F 63.1 °F 83% 30.13 in 10.0 mi ESE 5.8 mph - N/A   Scattered Clouds
8:55 PM 68.5 °F 63.1 °F 83% 30.14 in 10.0 mi ESE 8.1 mph - N/A   Mostly Cloudy
9:15 PM 68.2 °F 63.0 °F 83% 30.14 in 10.0 mi ESE 5.8 mph - N/A   Scattered Clouds
9:35 PM 68.0 °F 62.6 °F 83% 30.15 in 10.0 mi ESE 8.1 mph - N/A   Scattered Clouds
9:55 PM 68.0 °F 62.2 °F 82% 30.16 in 10.0 mi SE 8.1 mph - N/A   Scattered Clouds
10:15 PM 67.6 °F 62.6 °F 84% 30.16 in 10.0 mi ESE 9.2 mph - N/A   Scattered Clouds
10:35 PM 67.6 °F 62.6 °F 84% 30.17 in 10.0 mi ESE 3.5 mph - N/A   Scattered Clouds
10:55 PM 67.5 °F 62.1 °F 83% 30.17 in 10.0 mi ESE 5.8 mph - N/A   Clear
11:15 PM 67.3 °F 61.7 °F 82% 30.17 in 10.0 mi ESE 6.9 mph - N/A   Clear
11:35 PM 67.1 °F 61.3 °F 82% 30.17 in 10.0 mi SE 4.6 mph - N/A   Clear
11:55 PM 66.6 °F 61.2 °F 83% 30.18 in 10.0 mi ESE 6.9 mph - N/A   Clear